星链-4490 (STARLINK-4490 )

导读 | 豆包AI

STARLINK-4490是美国SpaceX公司于2022年8月10日发射的星链(Starlink)低轨宽带通信卫星,隶属于星链全球互联网星座。该卫星运行于近地轨道,搭载Ku/Ka波段通信载荷与霍尔推进系统,支持高速卫星互联网接入,具备自主避撞能力,寿命末期会主动离轨再入大气层销毁,服务全球偏远地区及移动场景的宽带连接,是星链大规模组网的组成部分。

Basic Information
目录编号:
53409
目录名称:
STARLINK-4490
国际标识:
2022-097X
轨道中心:
EARTH
卫星名称:
星链-4490
卫星全名:
星链-4490 (STARLINK-4490 )
卫星状态:
在轨 (已飞行1359 天)
发射日期:
2022-08-10 UTC
国别 :
美国 (US)
星等 :
--
Orbit Information
数据来源 国际轨道数据 AOE轨道数据
星历时间 2026-04-30T09:01:50+0800
18小时前
查看轨道信息
2026-04-30T07:00:00+0800
20小时前
查看轨道信息
半长轴 6917.874km 6917.898km
偏心率 0.0001174 0.0001442
轨道倾角 53.217° 53.218°
近地点辐角 84.288° 58.568°
升交点赤经 233.781° 234.161°
平近点角 275.825° 201.671°
近地点 538.924km 538.763km
远地点 540.55km 540.759km
周期 95.437分钟 95.438分钟
每日圈数 15.088423 15.088343
Detailed Information
固有亮度:
5
最大亮度:
2.5
卫星平台:
Starlink v1.5
覆盖范围:
全球
运营商:
太空探索技术公司
运营商所在国:
美国
制造商(研发单位):
太空探索技术公司
制造商所在国:
美国
使用方式:
暂无
Satellite Introduction
星链(Starlink)计划是由太空探索技术公司(SpaceX)提出的一个巨型低轨卫星互联网星座项目,计划在2019年至2024年间在太空搭建由约1.2万颗卫星组成的“星链”网络,其中1584颗将部署在地球上空550千米处的近地轨道,并从2020年开始工作。该卫星仍在工作。
2D Orbit Map
3D Orbit Map
Orbit Altitude Analysis Chart
Orbit Inclination Analysis Chart
Orbit Comprehensive Analysis Chart
View Comprehensive Chart